owner,sensor,date,latitude,longitude,vertical_datum,sea_water_practical_salinity,qcFlag 
NERRS,ioos:station:NOAA.NERRS:gndbhwq:1,2011-06-02T06:30:00Z,30.4178,-88.4054,0.0,18.4,1111122 
NERRS,ioos:station:NOAA.NERRS:gndbhwq:1,2011-06-02T07:45:00Z,30.4178,-88.4054,0.0,18.5,1111122 
NERRS,ioos:station:NOAA.NERRS:gndbhwq:1,2011-06-02T08:30:00Z,30.4178,-88.4054,0.0,18.5,1111122 
NERRS,ioos:station:NOAA.NERRS:gndbhwq:1,2011-06-02T09:30:00Z,30.4178,-88.4054,0.0,18.5,1111122 
NERRS,ioos:station:NOAA.NERRS:gndbhwq:1,2011-06-02T10:30:00Z,30.4178,-88.4054,0.0,18.5,1111122 
NERRS,ioos:station:NOAA.NERRS:gndbhwq:1,2011-06-02T11:30:00Z,30.4178,-88.4054,0.0,18.5,1111122 
NERRS,ioos:station:NOAA.NERRS:gndbhwq:1,2011-06-02T12:30:00Z,30.4178,-88.4054,0.0,18.4,1111122 
NERRS,ioos:station:NOAA.NERRS:gndbhwq:1,2011-06-02T13:30:00Z,30.4178,-88.4054,0.0,18.4,1111122 
NERRS,ioos:station:NOAA.NERRS:gndbhwq:1,2011-06-02T14:30:00Z,30.4178,-88.4054,0.0,18.4,1111122 
NERRS,ioos:station:NOAA.NERRS:gndbhwq:1,2011-06-02T15:30:00Z,30.4178,-88.4054,0.0,18.4,1111122 
NERRS,ioos:station:NOAA.NERRS:gndbhwq:1,2011-06-02T16:30:00Z,30.4178,-88.4054,0.0,18.2,1111122 
NERRS,ioos:station:NOAA.NERRS:gndbhwq:1,2011-06-02T17:30:00Z,30.4178,-88.4054,0.0,18.0,1111122 
NERRS,ioos:station:NOAA.NERRS:gndbhwq:1,2011-06-02T18:30:00Z,30.4178,-88.4054,0.0,18.0,1111122 
NERRS,ioos:station:NOAA.NERRS:gndbhwq:1,2011-06-02T19:30:00Z,30.4178,-88.4054,0.0,17.9,1111122 
NERRS,ioos:station:NOAA.NERRS:gndbhwq:1,2011-06-02T20:30:00Z,30.4178,-88.4054,0.0,17.5,1111122 
NERRS,ioos:station:NOAA.NERRS:gndbhwq:1,2011-06-02T21:30:00Z,30.4178,-88.4054,0.0,17.4,1111122 
NERRS,ioos:station:NOAA.NERRS:gndbhwq:1,2011-06-02T22:30:00Z,30.4178,-88.4054,0.0,17.2,1111122 
NERRS,ioos:station:NOAA.NERRS:gndbhwq:1,2011-06-02T23:30:00Z,30.4178,-88.4054,0.0,17.1,1111122 
NERRS,ioos:station:NOAA.NERRS:gndbhwq:1,2011-06-03T06:30:00Z,30.4178,-88.4054,0.0,17.1,1111122 
NERRS,ioos:station:NOAA.NERRS:gndbhwq:1,2011-06-03T07:45:00Z,30.4178,-88.4054,0.0,17.2,1111122 
NERRS,ioos:station:NOAA.NERRS:gndbhwq:1,2011-06-03T08:30:00Z,30.4178,-88.4054,0.0,17.2,1111122 
NERRS,ioos:station:NOAA.NERRS:gndbhwq:1,2011-06-03T09:30:00Z,30.4178,-88.4054,0.0,17.2,1111122 
NERRS,ioos:station:NOAA.NERRS:gndbhwq:1,2011-06-03T10:30:00Z,30.4178,-88.4054,0.0,17.3,1111122 
NERRS,ioos:station:NOAA.NERRS:gndbhwq:1,2011-06-03T11:30:00Z,30.4178,-88.4054,0.0,17.4,1111122 
NERRS,ioos:station:NOAA.NERRS:gndbhwq:1,2011-06-03T12:30:00Z,30.4178,-88.4054,0.0,17.3,1111122 
NERRS,ioos:station:NOAA.NERRS:gndbhwq:1,2011-06-03T13:30:00Z,30.4178,-88.4054,0.0,17.4,1111122 
NERRS,ioos:station:NOAA.NERRS:gndbhwq:1,2011-06-03T14:30:00Z,30.4178,-88.4054,0.0,17.4,1111122 
NERRS,ioos:station:NOAA.NERRS:gndbhwq:1,2011-06-03T15:30:00Z,30.4178,-88.4054,0.0,17.4,1111122 
NERRS,ioos:station:NOAA.NERRS:gndbhwq:1,2011-06-03T16:30:00Z,30.4178,-88.4054,0.0,17.5,1111122 
NERRS,ioos:station:NOAA.NERRS:gndbhwq:1,2011-06-03T17:30:00Z,30.4178,-88.4054,0.0,17.5,1111122 
NERRS,ioos:station:NOAA.NERRS:gndbhwq:1,2011-06-03T18:30:00Z,30.4178,-88.4054,0.0,17.4,1111122 
NERRS,ioos:station:NOAA.NERRS:gndbhwq:1,2011-06-03T19:30:00Z,30.4178,-88.4054,0.0,17.3,1111122 
NERRS,ioos:station:NOAA.NERRS:gndbhwq:1,2011-06-03T20:30:00Z,30.4178,-88.4054,0.0,17.4,1111122 
NERRS,ioos:station:NOAA.NERRS:gndbhwq:1,2011-06-03T21:30:00Z,30.4178,-88.4054,0.0,17.4,1111122 
NERRS,ioos:station:NOAA.NERRS:gndbhwq:1,2011-06-03T22:30:00Z,30.4178,-88.4054,0.0,17.3,1111122 
NERRS,ioos:station:NOAA.NERRS:gndbhwq:1,2011-06-03T23:30:00Z,30.4178,-88.4054,0.0,17.3,1111122 
NERRS,ioos:station:NOAA.NERRS:gndbhwq:1,2011-06-04T06:30:00Z,30.4178,-88.4054,0.0,17.2,1111122 
NERRS,ioos:station:NOAA.NERRS:gndbhwq:1,2011-06-04T07:45:00Z,30.4178,-88.4054,0.0,17.2,1111122 
NERRS,ioos:station:NOAA.NERRS:gndbhwq:1,2011-06-04T08:30:00Z,30.4178,-88.4054,0.0,17.2,1111122 
NERRS,ioos:station:NOAA.NERRS:gndbhwq:1,2011-06-04T09:30:00Z,30.4178,-88.4054,0.0,17.1,1111122 
NERRS,ioos:station:NOAA.NERRS:gndbhwq:1,2011-06-04T10:30:00Z,30.4178,-88.4054,0.0,17.0,1111122 
NERRS,ioos:station:NOAA.NERRS:gndbhwq:1,2011-06-04T11:30:00Z,30.4178,-88.4054,0.0,17.0,1111122 
NERRS,ioos:station:NOAA.NERRS:gndbhwq:1,2011-06-04T12:30:00Z,30.4178,-88.4054,0.0,17.1,1111122 
NERRS,ioos:station:NOAA.NERRS:gndbhwq:1,2011-06-04T13:30:00Z,30.4178,-88.4054,0.0,17.0,1111122 
NERRS,ioos:station:NOAA.NERRS:gndbhwq:1,2011-06-04T14:30:00Z,30.4178,-88.4054,0.0,17.1,1111122 
NERRS,ioos:station:NOAA.NERRS:gndbhwq:1,2011-06-04T15:30:00Z,30.4178,-88.4054,0.0,17.2,1111122 
NERRS,ioos:station:NOAA.NERRS:gndbhwq:1,2011-06-04T16:30:00Z,30.4178,-88.4054,0.0,17.4,1111122 
NERRS,ioos:station:NOAA.NERRS:gndbhwq:1,2011-06-04T17:30:00Z,30.4178,-88.4054,0.0,17.5,1111122 
NERRS,ioos:station:NOAA.NERRS:gndbhwq:1,2011-06-04T18:30:00Z,30.4178,-88.4054,0.0,17.6,1111122 
NERRS,ioos:station:NOAA.NERRS:gndbhwq:1,2011-06-04T19:30:00Z,30.4178,-88.4054,0.0,17.7,1111122 
NERRS,ioos:station:NOAA.NERRS:gndbhwq:1,2011-06-04T20:30:00Z,30.4178,-88.4054,0.0,17.7,1111122 
NERRS,ioos:station:NOAA.NERRS:gndbhwq:1,2011-06-04T21:30:00Z,30.4178,-88.4054,0.0,17.8,1111122 
NERRS,ioos:station:NOAA.NERRS:gndbhwq:1,2011-06-04T22:30:00Z,30.4178,-88.4054,0.0,17.5,1111122 
NERRS,ioos:station:NOAA.NERRS:gndbhwq:1,2011-06-04T23:30:00Z,30.4178,-88.4054,0.0,17.6,1111122 
NERRS,ioos:station:NOAA.NERRS:gndbhwq:1,2011-06-05T06:30:00Z,30.4178,-88.4054,0.0,17.7,1111122 
NERRS,ioos:station:NOAA.NERRS:gndbhwq:1,2011-06-05T07:45:00Z,30.4178,-88.4054,0.0,17.7,1111122 
NERRS,ioos:station:NOAA.NERRS:gndbhwq:1,2011-06-05T08:30:00Z,30.4178,-88.4054,0.0,17.7,1111122 
NERRS,ioos:station:NOAA.NERRS:gndbhwq:1,2011-06-05T09:30:00Z,30.4178,-88.4054,0.0,12.5,1111122 
NERRS,ioos:station:NOAA.NERRS:gndbhwq:1,2011-06-05T10:30:00Z,30.4178,-88.4054,0.0,17.7,1111122 
NERRS,ioos:station:NOAA.NERRS:gndbhwq:1,2011-06-05T11:30:00Z,30.4178,-88.4054,0.0,13.8,1111122 
NERRS,ioos:station:NOAA.NERRS:gndbhwq:1,2011-06-05T12:30:00Z,30.4178,-88.4054,0.0,13.8,1111122 
NERRS,ioos:station:NOAA.NERRS:gndbhwq:1,2011-06-05T13:30:00Z,30.4178,-88.4054,0.0,13.9,1111122 
NERRS,ioos:station:NOAA.NERRS:gndbhwq:1,2011-06-05T14:30:00Z,30.4178,-88.4054,0.0,14.2,1111122 
NERRS,ioos:station:NOAA.NERRS:gndbhwq:1,2011-06-05T15:30:00Z,30.4178,-88.4054,0.0,14.1,1111122 
NERRS,ioos:station:NOAA.NERRS:gndbhwq:1,2011-06-05T16:30:00Z,30.4178,-88.4054,0.0,13.2,1111122 
NERRS,ioos:station:NOAA.NERRS:gndbhwq:1,2011-06-05T17:30:00Z,30.4178,-88.4054,0.0,13.2,1111122 
NERRS,ioos:station:NOAA.NERRS:gndbhwq:1,2011-06-05T18:30:00Z,30.4178,-88.4054,0.0,13.1,1111122 
NERRS,ioos:station:NOAA.NERRS:gndbhwq:1,2011-06-05T19:30:00Z,30.4178,-88.4054,0.0,13.6,1111122 
NERRS,ioos:station:NOAA.NERRS:gndbhwq:1,2011-06-05T20:30:00Z,30.4178,-88.4054,0.0,13.0,1111122 
NERRS,ioos:station:NOAA.NERRS:gndbhwq:1,2011-06-05T21:30:00Z,30.4178,-88.4054,0.0,13.1,1111122 
NERRS,ioos:station:NOAA.NERRS:gndbhwq:1,2011-06-05T22:30:00Z,30.4178,-88.4054,0.0,13.0,1111122 
NERRS,ioos:station:NOAA.NERRS:gndbhwq:1,2011-06-05T23:30:00Z,30.4178,-88.4054,0.0,13.9,1111122 
NERRS,ioos:station:NOAA.NERRS:gndbhwq:1,2011-06-06T06:30:00Z,30.4178,-88.4054,0.0,13.0,1111122 
NERRS,ioos:station:NOAA.NERRS:gndbhwq:1,2011-06-06T07:45:00Z,30.4178,-88.4054,0.0,13.2,1111122 
NERRS,ioos:station:NOAA.NERRS:gndbhwq:1,2011-06-06T08:30:00Z,30.4178,-88.4054,0.0,13.4,1111122 
NERRS,ioos:station:NOAA.NERRS:gndbhwq:1,2011-06-06T09:30:00Z,30.4178,-88.4054,0.0,14.7,1111122 
NERRS,ioos:station:NOAA.NERRS:gndbhwq:1,2011-06-06T10:30:00Z,30.4178,-88.4054,0.0,14.5,1111122 
NERRS,ioos:station:NOAA.NERRS:gndbhwq:1,2011-06-06T11:30:00Z,30.4178,-88.4054,0.0,14.7,1111122 
NERRS,ioos:station:NOAA.NERRS:gndbhwq:1,2011-06-06T12:30:00Z,30.4178,-88.4054,0.0,14.0,1111122 
NERRS,ioos:station:NOAA.NERRS:gndbhwq:1,2011-06-06T13:30:00Z,30.4178,-88.4054,0.0,14.5,1111122 
NERRS,ioos:station:NOAA.NERRS:gndbhwq:1,2011-06-06T14:30:00Z,30.4178,-88.4054,0.0,16.0,1111122 
NERRS,ioos:station:NOAA.NERRS:gndbhwq:1,2011-06-06T15:30:00Z,30.4178,-88.4054,0.0,16.6,1111122 
NERRS,ioos:station:NOAA.NERRS:gndbhwq:1,2011-06-06T16:30:00Z,30.4178,-88.4054,0.0,17.8,1111122 
NERRS,ioos:station:NOAA.NERRS:gndbhwq:1,2011-06-06T17:30:00Z,30.4178,-88.4054,0.0,17.8,1111122 
NERRS,ioos:station:NOAA.NERRS:gndbhwq:1,2011-06-06T18:30:00Z,30.4178,-88.4054,0.0,17.8,1111122 
NERRS,ioos:station:NOAA.NERRS:gndbhwq:1,2011-06-06T19:30:00Z,30.4178,-88.4054,0.0,17.6,1111122 
NERRS,ioos:station:NOAA.NERRS:gndbhwq:1,2011-06-06T20:30:00Z,30.4178,-88.4054,0.0,17.7,1111122 
NERRS,ioos:station:NOAA.NERRS:gndbhwq:1,2011-06-06T21:30:00Z,30.4178,-88.4054,0.0,17.3,1111122 
NERRS,ioos:station:NOAA.NERRS:gndbhwq:1,2011-06-06T22:30:00Z,30.4178,-88.4054,0.0,17.7,1111122 
NERRS,ioos:station:NOAA.NERRS:gndbhwq:1,2011-06-06T23:30:00Z,30.4178,-88.4054,0.0,17.5,1111122 
NERRS,ioos:station:NOAA.NERRS:gndbhwq:1,2011-06-07T06:15:00Z,30.4178,-88.4054,0.0,17.1,1111122 
NERRS,ioos:station:NOAA.NERRS:gndbhwq:1,2011-06-07T08:15:00Z,30.4178,-88.4054,0.0,17.1,1111122 
NERRS,ioos:station:NOAA.NERRS:gndbhwq:1,2011-06-07T10:30:00Z,30.4178,-88.4054,0.0,17.2,1111122 
NERRS,ioos:station:NOAA.NERRS:gndbhwq:1,2011-06-07T11:30:00Z,30.4178,-88.4054,0.0,17.1,1111122 
NERRS,ioos:station:NOAA.NERRS:gndbhwq:1,2011-06-07T12:30:00Z,30.4178,-88.4054,0.0,17.3,1111122 
NERRS,ioos:station:NOAA.NERRS:gndbhwq:1,2011-06-07T13:30:00Z,30.4178,-88.4054,0.0,17.2,1111122 
NERRS,ioos:station:NOAA.NERRS:gndbhwq:1,2011-06-07T14:30:00Z,30.4178,-88.4054,0.0,17.3,1111122 
NERRS,ioos:station:NOAA.NERRS:gndbhwq:1,2011-06-07T15:30:00Z,30.4178,-88.4054,0.0,17.3,1111122 
NERRS,ioos:station:NOAA.NERRS:gndbhwq:1,2011-06-07T16:30:00Z,30.4178,-88.4054,0.0,17.4,1111122 
NERRS,ioos:station:NOAA.NERRS:gndbhwq:1,2011-06-07T17:30:00Z,30.4178,-88.4054,0.0,17.3,1111122 
NERRS,ioos:station:NOAA.NERRS:gndbhwq:1,2011-06-07T18:30:00Z,30.4178,-88.4054,0.0,17.4,1111122 
NERRS,ioos:station:NOAA.NERRS:gndbhwq:1,2011-06-07T19:30:00Z,30.4178,-88.4054,0.0,17.3,1111122 
NERRS,ioos:station:NOAA.NERRS:gndbhwq:1,2011-06-07T20:30:00Z,30.4178,-88.4054,0.0,17.4,1111122 
NERRS,ioos:station:NOAA.NERRS:gndbhwq:1,2011-06-07T21:30:00Z,30.4178,-88.4054,0.0,17.3,1111122 
NERRS,ioos:station:NOAA.NERRS:gndbhwq:1,2011-06-07T22:30:00Z,30.4178,-88.4054,0.0,17.3,1111122 
NERRS,ioos:station:NOAA.NERRS:gndbhwq:1,2011-06-07T23:30:00Z,30.4178,-88.4054,0.0,17.4,1111122 
NERRS,ioos:station:NOAA.NERRS:gndbhwq:1,2011-06-08T06:30:00Z,30.4178,-88.4054,0.0,17.0,1111122 
NERRS,ioos:station:NOAA.NERRS:gndbhwq:1,2011-06-08T07:45:00Z,30.4178,-88.4054,0.0,17.0,1111122 
NERRS,ioos:station:NOAA.NERRS:gndbhwq:1,2011-06-08T08:30:00Z,30.4178,-88.4054,0.0,17.0,1111122 
NERRS,ioos:station:NOAA.NERRS:gndbhwq:1,2011-06-08T09:30:00Z,30.4178,-88.4054,0.0,17.0,1111122 
NERRS,ioos:station:NOAA.NERRS:gndbhwq:1,2011-06-08T10:30:00Z,30.4178,-88.4054,0.0,17.0,1111122 
NERRS,ioos:station:NOAA.NERRS:gndbhwq:1,2011-06-08T11:30:00Z,30.4178,-88.4054,0.0,17.0,1111122 
NERRS,ioos:station:NOAA.NERRS:gndbhwq:1,2011-06-08T12:30:00Z,30.4178,-88.4054,0.0,16.6,1111122 
NERRS,ioos:station:NOAA.NERRS:gndbhwq:1,2011-06-08T13:30:00Z,30.4178,-88.4054,0.0,17.2,1111122 
NERRS,ioos:station:NOAA.NERRS:gndbhwq:1,2011-06-08T14:30:00Z,30.4178,-88.4054,0.0,17.1,1111122 
NERRS,ioos:station:NOAA.NERRS:gndbhwq:1,2011-06-08T15:30:00Z,30.4178,-88.4054,0.0,17.2,1111122 
NERRS,ioos:station:NOAA.NERRS:gndbhwq:1,2011-06-08T16:30:00Z,30.4178,-88.4054,0.0,17.1,1111122 
NERRS,ioos:station:NOAA.NERRS:gndbhwq:1,2011-06-08T17:30:00Z,30.4178,-88.4054,0.0,17.1,1111122 
NERRS,ioos:station:NOAA.NERRS:gndbhwq:1,2011-06-08T18:30:00Z,30.4178,-88.4054,0.0,17.2,1111122 
NERRS,ioos:station:NOAA.NERRS:gndbhwq:1,2011-06-08T19:30:00Z,30.4178,-88.4054,0.0,17.1,1111122 
NERRS,ioos:station:NOAA.NERRS:gndbhwq:1,2011-06-08T20:30:00Z,30.4178,-88.4054,0.0,17.0,1111122 
NERRS,ioos:station:NOAA.NERRS:gndbhwq:1,2011-06-08T21:30:00Z,30.4178,-88.4054,0.0,16.9,1111122 
NERRS,ioos:station:NOAA.NERRS:gndbhwq:1,2011-06-08T22:30:00Z,30.4178,-88.4054,0.0,16.9,1111122 
NERRS,ioos:station:NOAA.NERRS:gndbhwq:1,2011-06-08T23:30:00Z,30.4178,-88.4054,0.0,17.0,1111122 
NERRS,ioos:station:NOAA.NERRS:gndbhwq:1,2011-06-09T06:30:00Z,30.4178,-88.4054,0.0,17.0,1111122 
NERRS,ioos:station:NOAA.NERRS:gndbhwq:1,2011-06-09T07:45:00Z,30.4178,-88.4054,0.0,17.1,1111122 
NERRS,ioos:station:NOAA.NERRS:gndbhwq:1,2011-06-09T08:30:00Z,30.4178,-88.4054,0.0,17.1,1111122 
NERRS,ioos:station:NOAA.NERRS:gndbhwq:1,2011-06-09T09:30:00Z,30.4178,-88.4054,0.0,17.1,1111122 
NERRS,ioos:station:NOAA.NERRS:gndbhwq:1,2011-06-09T10:30:00Z,30.4178,-88.4054,0.0,17.1,1111122 
NERRS,ioos:station:NOAA.NERRS:gndbhwq:1,2011-06-09T11:30:00Z,30.4178,-88.4054,0.0,17.1,1111122 
NERRS,ioos:station:NOAA.NERRS:gndbhwq:1,2011-06-09T12:30:00Z,30.4178,-88.4054,0.0,17.1,1111122 
NERRS,ioos:station:NOAA.NERRS:gndbhwq:1,2011-06-09T13:30:00Z,30.4178,-88.4054,0.0,17.2,1111122 
NERRS,ioos:station:NOAA.NERRS:gndbhwq:1,2011-06-09T14:30:00Z,30.4178,-88.4054,0.0,17.2,1111122 
NERRS,ioos:station:NOAA.NERRS:gndbhwq:1,2011-06-09T15:30:00Z,30.4178,-88.4054,0.0,17.2,1111122 
NERRS,ioos:station:NOAA.NERRS:gndbhwq:1,2011-06-09T16:30:00Z,30.4178,-88.4054,0.0,17.2,1111122 
NERRS,ioos:station:NOAA.NERRS:gndbhwq:1,2011-06-09T17:30:00Z,30.4178,-88.4054,0.0,17.0,1111122 
NERRS,ioos:station:NOAA.NERRS:gndbhwq:1,2011-06-09T18:30:00Z,30.4178,-88.4054,0.0,17.2,1111122 
NERRS,ioos:station:NOAA.NERRS:gndbhwq:1,2011-06-09T19:30:00Z,30.4178,-88.4054,0.0,17.1,1111122 
NERRS,ioos:station:NOAA.NERRS:gndbhwq:1,2011-06-09T20:30:00Z,30.4178,-88.4054,0.0,17.0,1111122 
NERRS,ioos:station:NOAA.NERRS:gndbhwq:1,2011-06-09T21:30:00Z,30.4178,-88.4054,0.0,16.9,1111122 
NERRS,ioos:station:NOAA.NERRS:gndbhwq:1,2011-06-09T22:30:00Z,30.4178,-88.4054,0.0,16.8,1111122 
NERRS,ioos:station:NOAA.NERRS:gndbhwq:1,2011-06-09T23:30:00Z,30.4178,-88.4054,0.0,16.9,1111122 
NERRS,ioos:station:NOAA.NERRS:gndbhwq:1,2011-06-10T06:30:00Z,30.4178,-88.4054,0.0,17.3,1111122 
NERRS,ioos:station:NOAA.NERRS:gndbhwq:1,2011-06-10T07:45:00Z,30.4178,-88.4054,0.0,17.3,1111122 
NERRS,ioos:station:NOAA.NERRS:gndbhwq:1,2011-06-10T08:30:00Z,30.4178,-88.4054,0.0,17.3,1111122 
NERRS,ioos:station:NOAA.NERRS:gndbhwq:1,2011-06-10T09:30:00Z,30.4178,-88.4054,0.0,17.3,1111122 
NERRS,ioos:station:NOAA.NERRS:gndbhwq:1,2011-06-10T10:30:00Z,30.4178,-88.4054,0.0,17.3,1111122 
NERRS,ioos:station:NOAA.NERRS:gndbhwq:1,2011-06-10T11:30:00Z,30.4178,-88.4054,0.0,17.3,1111122 
NERRS,ioos:station:NOAA.NERRS:gndbhwq:1,2011-06-10T12:30:00Z,30.4178,-88.4054,0.0,17.2,1111122 
NERRS,ioos:station:NOAA.NERRS:gndbhwq:1,2011-06-10T13:30:00Z,30.4178,-88.4054,0.0,17.2,1111122 
NERRS,ioos:station:NOAA.NERRS:gndbhwq:1,2011-06-10T14:30:00Z,30.4178,-88.4054,0.0,17.3,1111122 
NERRS,ioos:station:NOAA.NERRS:gndbhwq:1,2011-06-10T15:30:00Z,30.4178,-88.4054,0.0,17.3,1111122 
NERRS,ioos:station:NOAA.NERRS:gndbhwq:1,2011-06-10T16:30:00Z,30.4178,-88.4054,0.0,17.4,1111122 
NERRS,ioos:station:NOAA.NERRS:gndbhwq:1,2011-06-10T17:30:00Z,30.4178,-88.4054,0.0,17.4,1111122 
NERRS,ioos:station:NOAA.NERRS:gndbhwq:1,2011-06-10T18:30:00Z,30.4178,-88.4054,0.0,17.4,1111122 
NERRS,ioos:station:NOAA.NERRS:gndbhwq:1,2011-06-10T19:30:00Z,30.4178,-88.4054,0.0,17.3,1111122 
NERRS,ioos:station:NOAA.NERRS:gndbhwq:1,2011-06-10T20:30:00Z,30.4178,-88.4054,0.0,17.3,1111122 
NERRS,ioos:station:NOAA.NERRS:gndbhwq:1,2011-06-10T21:30:00Z,30.4178,-88.4054,0.0,18.4,1111122 
NERRS,ioos:station:NOAA.NERRS:gndbhwq:1,2011-06-10T22:30:00Z,30.4178,-88.4054,0.0,18.3,1111122 
NERRS,ioos:station:NOAA.NERRS:gndbhwq:1,2011-06-10T23:30:00Z,30.4178,-88.4054,0.0,18.3,1111122 
NERRS,ioos:station:NOAA.NERRS:gndbhwq:1,2011-06-11T06:30:00Z,30.4178,-88.4054,0.0,18.2,1111122 
NERRS,ioos:station:NOAA.NERRS:gndbhwq:1,2011-06-11T07:45:00Z,30.4178,-88.4054,0.0,18.2,1111122 
NERRS,ioos:station:NOAA.NERRS:gndbhwq:1,2011-06-11T08:30:00Z,30.4178,-88.4054,0.0,18.2,1111122 
NERRS,ioos:station:NOAA.NERRS:gndbhwq:1,2011-06-11T09:30:00Z,30.4178,-88.4054,0.0,18.2,1111122 
NERRS,ioos:station:NOAA.NERRS:gndbhwq:1,2011-06-11T10:30:00Z,30.4178,-88.4054,0.0,18.2,1111122 
NERRS,ioos:station:NOAA.NERRS:gndbhwq:1,2011-06-11T11:30:00Z,30.4178,-88.4054,0.0,18.3,1111122 
NERRS,ioos:station:NOAA.NERRS:gndbhwq:1,2011-06-11T12:30:00Z,30.4178,-88.4054,0.0,18.3,1111122 
NERRS,ioos:station:NOAA.NERRS:gndbhwq:1,2011-06-11T13:30:00Z,30.4178,-88.4054,0.0,18.3,1111122 
NERRS,ioos:station:NOAA.NERRS:gndbhwq:1,2011-06-11T14:30:00Z,30.4178,-88.4054,0.0,18.1,1111122 
NERRS,ioos:station:NOAA.NERRS:gndbhwq:1,2011-06-11T15:30:00Z,30.4178,-88.4054,0.0,18.2,1111122 
NERRS,ioos:station:NOAA.NERRS:gndbhwq:1,2011-06-11T16:30:00Z,30.4178,-88.4054,0.0,18.3,1111122 
NERRS,ioos:station:NOAA.NERRS:gndbhwq:1,2011-06-11T17:30:00Z,30.4178,-88.4054,0.0,18.3,1111122 
NERRS,ioos:station:NOAA.NERRS:gndbhwq:1,2011-06-11T18:30:00Z,30.4178,-88.4054,0.0,18.3,1111122 
NERRS,ioos:station:NOAA.NERRS:gndbhwq:1,2011-06-11T19:30:00Z,30.4178,-88.4054,0.0,18.2,1111122 
NERRS,ioos:station:NOAA.NERRS:gndbhwq:1,2011-06-11T20:30:00Z,30.4178,-88.4054,0.0,18.0,1111122 
NERRS,ioos:station:NOAA.NERRS:gndbhwq:1,2011-06-11T21:30:00Z,30.4178,-88.4054,0.0,18.0,1111122 
NERRS,ioos:station:NOAA.NERRS:gndbhwq:1,2011-06-11T22:30:00Z,30.4178,-88.4054,0.0,17.9,1111122 
NERRS,ioos:station:NOAA.NERRS:gndbhwq:1,2011-06-11T23:30:00Z,30.4178,-88.4054,0.0,17.9,1111122 
NERRS,ioos:station:NOAA.NERRS:gndbhwq:1,2011-06-12T06:30:00Z,30.4178,-88.4054,0.0,17.9,1111122 
NERRS,ioos:station:NOAA.NERRS:gndbhwq:1,2011-06-12T07:45:00Z,30.4178,-88.4054,0.0,18.0,1111122 
NERRS,ioos:station:NOAA.NERRS:gndbhwq:1,2011-06-12T08:30:00Z,30.4178,-88.4054,0.0,18.1,1111122 
NERRS,ioos:station:NOAA.NERRS:gndbhwq:1,2011-06-12T09:30:00Z,30.4178,-88.4054,0.0,18.1,1111122 
NERRS,ioos:station:NOAA.NERRS:gndbhwq:1,2011-06-12T10:30:00Z,30.4178,-88.4054,0.0,18.2,1111122 
NERRS,ioos:station:NOAA.NERRS:gndbhwq:1,2011-06-12T11:30:00Z,30.4178,-88.4054,0.0,18.3,1111122 
NERRS,ioos:station:NOAA.NERRS:gndbhwq:1,2011-06-12T12:30:00Z,30.4178,-88.4054,0.0,18.2,1111122 
NERRS,ioos:station:NOAA.NERRS:gndbhwq:1,2011-06-12T13:30:00Z,30.4178,-88.4054,0.0,18.4,1111122 
NERRS,ioos:station:NOAA.NERRS:gndbhwq:1,2011-06-12T14:30:00Z,30.4178,-88.4054,0.0,18.5,1111122 
NERRS,ioos:station:NOAA.NERRS:gndbhwq:1,2011-06-12T15:30:00Z,30.4178,-88.4054,0.0,19.2,1111122 
NERRS,ioos:station:NOAA.NERRS:gndbhwq:1,2011-06-12T16:30:00Z,30.4178,-88.4054,0.0,19.2,1111122 
NERRS,ioos:station:NOAA.NERRS:gndbhwq:1,2011-06-12T17:30:00Z,30.4178,-88.4054,0.0,19.4,1111122 
NERRS,ioos:station:NOAA.NERRS:gndbhwq:1,2011-06-12T18:30:00Z,30.4178,-88.4054,0.0,19.3,1111122 
NERRS,ioos:station:NOAA.NERRS:gndbhwq:1,2011-06-12T19:30:00Z,30.4178,-88.4054,0.0,19.3,1111122 
NERRS,ioos:station:NOAA.NERRS:gndbhwq:1,2011-06-12T20:30:00Z,30.4178,-88.4054,0.0,19.2,1111122 
NERRS,ioos:station:NOAA.NERRS:gndbhwq:1,2011-06-12T21:30:00Z,30.4178,-88.4054,0.0,19.0,1111122 
NERRS,ioos:station:NOAA.NERRS:gndbhwq:1,2011-06-12T22:30:00Z,30.4178,-88.4054,0.0,19.0,1111122 
NERRS,ioos:station:NOAA.NERRS:gndbhwq:1,2011-06-12T23:30:00Z,30.4178,-88.4054,0.0,18.9,1111122 
NERRS,ioos:station:NOAA.NERRS:gndbhwq:1,2011-06-13T06:30:00Z,30.4178,-88.4054,0.0,19.4,1111122 
NERRS,ioos:station:NOAA.NERRS:gndbhwq:1,2011-06-13T07:45:00Z,30.4178,-88.4054,0.0,19.5,1111122 
NERRS,ioos:station:NOAA.NERRS:gndbhwq:1,2011-06-13T08:30:00Z,30.4178,-88.4054,0.0,19.5,1111122 
NERRS,ioos:station:NOAA.NERRS:gndbhwq:1,2011-06-13T09:30:00Z,30.4178,-88.4054,0.0,19.6,1111122 
NERRS,ioos:station:NOAA.NERRS:gndbhwq:1,2011-06-13T10:30:00Z,30.4178,-88.4054,0.0,19.7,1111122 
NERRS,ioos:station:NOAA.NERRS:gndbhwq:1,2011-06-13T11:30:00Z,30.4178,-88.4054,0.0,19.7,1111122 
NERRS,ioos:station:NOAA.NERRS:gndbhwq:1,2011-06-13T12:30:00Z,30.4178,-88.4054,0.0,19.7,1111122 
NERRS,ioos:station:NOAA.NERRS:gndbhwq:1,2011-06-13T13:30:00Z,30.4178,-88.4054,0.0,19.7,1111122 
NERRS,ioos:station:NOAA.NERRS:gndbhwq:1,2011-06-13T14:30:00Z,30.4178,-88.4054,0.0,19.7,1111122 
NERRS,ioos:station:NOAA.NERRS:gndbhwq:1,2011-06-13T15:30:00Z,30.4178,-88.4054,0.0,19.7,1111122 
NERRS,ioos:station:NOAA.NERRS:gndbhwq:1,2011-06-13T16:30:00Z,30.4178,-88.4054,0.0,19.8,1111122 
NERRS,ioos:station:NOAA.NERRS:gndbhwq:1,2011-06-13T17:30:00Z,30.4178,-88.4054,0.0,19.9,1111122 
NERRS,ioos:station:NOAA.NERRS:gndbhwq:1,2011-06-13T18:30:00Z,30.4178,-88.4054,0.0,19.9,1111122 
NERRS,ioos:station:NOAA.NERRS:gndbhwq:1,2011-06-13T19:30:00Z,30.4178,-88.4054,0.0,19.8,1111122 
NERRS,ioos:station:NOAA.NERRS:gndbhwq:1,2011-06-13T20:30:00Z,30.4178,-88.4054,0.0,19.8,1111122 
NERRS,ioos:station:NOAA.NERRS:gndbhwq:1,2011-06-13T21:30:00Z,30.4178,-88.4054,0.0,19.8,1111122 
NERRS,ioos:station:NOAA.NERRS:gndbhwq:1,2011-06-13T22:30:00Z,30.4178,-88.4054,0.0,19.6,1111122 
NERRS,ioos:station:NOAA.NERRS:gndbhwq:1,2011-06-13T23:30:00Z,30.4178,-88.4054,0.0,19.6,1111122 
NERRS,ioos:station:NOAA.NERRS:gndbhwq:1,2011-06-14T06:30:00Z,30.4178,-88.4054,0.0,20.2,1111122 
NERRS,ioos:station:NOAA.NERRS:gndbhwq:1,2011-06-14T07:45:00Z,30.4178,-88.4054,0.0,27.0,1111122 
NERRS,ioos:station:NOAA.NERRS:gndbhwq:1,2011-06-14T08:30:00Z,30.4178,-88.4054,0.0,27.2,1111122 
NERRS,ioos:station:NOAA.NERRS:gndbhwq:1,2011-06-14T09:30:00Z,30.4178,-88.4054,0.0,27.6,1111122 
NERRS,ioos:station:NOAA.NERRS:gndbhwq:1,2011-06-14T10:30:00Z,30.4178,-88.4054,0.0,28.0,1111122 
NERRS,ioos:station:NOAA.NERRS:gndbhwq:1,2011-06-14T11:30:00Z,30.4178,-88.4054,0.0,28.1,1111122 
NERRS,ioos:station:NOAA.NERRS:gndbhwq:1,2011-06-14T12:30:00Z,30.4178,-88.4054,0.0,28.2,1111122 
NERRS,ioos:station:NOAA.NERRS:gndbhwq:1,2011-06-14T13:30:00Z,30.4178,-88.4054,0.0,28.5,1111122 
NERRS,ioos:station:NOAA.NERRS:gndbhwq:1,2011-06-14T14:30:00Z,30.4178,-88.4054,0.0,28.7,1111122 
NERRS,ioos:station:NOAA.NERRS:gndbhwq:1,2011-06-14T15:30:00Z,30.4178,-88.4054,0.0,28.8,1111122 
NERRS,ioos:station:NOAA.NERRS:gndbhwq:1,2011-06-14T16:30:00Z,30.4178,-88.4054,0.0,28.8,1111122 
NERRS,ioos:station:NOAA.NERRS:gndbhwq:1,2011-06-14T17:30:00Z,30.4178,-88.4054,0.0,29.2,1111122 
NERRS,ioos:station:NOAA.NERRS:gndbhwq:1,2011-06-14T18:30:00Z,30.4178,-88.4054,0.0,29.4,1111122 
NERRS,ioos:station:NOAA.NERRS:gndbhwq:1,2011-06-14T19:30:00Z,30.4178,-88.4054,0.0,29.4,1111122 
NERRS,ioos:station:NOAA.NERRS:gndbhwq:1,2011-06-14T20:30:00Z,30.4178,-88.4054,0.0,29.1,1111122 
NERRS,ioos:station:NOAA.NERRS:gndbhwq:1,2011-06-14T21:30:00Z,30.4178,-88.4054,0.0,29.2,1111122 
NERRS,ioos:station:NOAA.NERRS:gndbhwq:1,2011-06-14T22:30:00Z,30.4178,-88.4054,0.0,29.2,1111122 
NERRS,ioos:station:NOAA.NERRS:gndbhwq:1,2011-06-14T23:30:00Z,30.4178,-88.4054,0.0,29.1,1111122 
NERRS,ioos:station:NOAA.NERRS:gndbhwq:1,2011-06-15T06:30:00Z,30.4178,-88.4054,0.0,29.3,1111122 
NERRS,ioos:station:NOAA.NERRS:gndbhwq:1,2011-06-15T07:45:00Z,30.4178,-88.4054,0.0,29.5,1111122 
NERRS,ioos:station:NOAA.NERRS:gndbhwq:1,2011-06-15T08:30:00Z,30.4178,-88.4054,0.0,29.6,1111122 
NERRS,ioos:station:NOAA.NERRS:gndbhwq:1,2011-06-15T09:30:00Z,30.4178,-88.4054,0.0,29.7,1111122 
NERRS,ioos:station:NOAA.NERRS:gndbhwq:1,2011-06-15T10:30:00Z,30.4178,-88.4054,0.0,29.7,1111122 
NERRS,ioos:station:NOAA.NERRS:gndbhwq:1,2011-06-15T11:30:00Z,30.4178,-88.4054,0.0,29.7,1111122 
NERRS,ioos:station:NOAA.NERRS:gndbhwq:1,2011-06-15T12:30:00Z,30.4178,-88.4054,0.0,29.7,1111122 
NERRS,ioos:station:NOAA.NERRS:gndbhwq:1,2011-06-15T13:30:00Z,30.4178,-88.4054,0.0,29.8,1111122 
NERRS,ioos:station:NOAA.NERRS:gndbhwq:1,2011-06-15T14:30:00Z,30.4178,-88.4054,0.0,30.0,1111122 
NERRS,ioos:station:NOAA.NERRS:gndbhwq:1,2011-06-15T15:30:00Z,30.4178,-88.4054,0.0,30.0,1111122 
NERRS,ioos:station:NOAA.NERRS:gndbhwq:1,2011-06-15T16:30:00Z,30.4178,-88.4054,0.0,30.2,1111122 
NERRS,ioos:station:NOAA.NERRS:gndbhwq:1,2011-06-15T17:30:00Z,30.4178,-88.4054,0.0,30.1,1111122 
NERRS,ioos:station:NOAA.NERRS:gndbhwq:1,2011-06-15T18:30:00Z,30.4178,-88.4054,0.0,30.2,1111122 
NERRS,ioos:station:NOAA.NERRS:gndbhwq:1,2011-06-15T19:30:00Z,30.4178,-88.4054,0.0,30.1,1111122 
NERRS,ioos:station:NOAA.NERRS:gndbhwq:1,2011-06-15T20:30:00Z,30.4178,-88.4054,0.0,30.2,1111122 
NERRS,ioos:station:NOAA.NERRS:gndbhwq:1,2011-06-15T21:30:00Z,30.4178,-88.4054,0.0,30.2,1111122 
NERRS,ioos:station:NOAA.NERRS:gndbhwq:1,2011-06-15T22:30:00Z,30.4178,-88.4054,0.0,30.0,1111122 